Location: *
(51.4660°N, 0.3360°W)
Time: 14:25:01
(UTC+00:00)

Cosmos 1805 - Pass Details

Date: 19 September 2019
Orbit: 525 x 532 km, 82.5° (Epoch: 21 October)

Event Time Altitude Azimuth Distance (km) Brightness Sun altitude
Exits shadow 19:42:33 27° 89° (E) 1,050 4.2 -15.2°
Drops below altitude 10° 19:45:51 10° 32° (NNE) 1,784 5.8 -15.7°
Sets 19:48:13 0° 20° (NNE) 2,679 6.9 -16.1°
